Date,TemperatureHighF,TemperatureAvgF,TemperatureLowF,DewpointHighF,DewpointAvgF,DewpointLowF,HumidityHigh,HumidityAvg,HumidityLow,PressureMaxIn,PressureMinIn,WindSpeedMaxMPH,WindSpeedAvgMPH,GustSpeedMaxMPH,PrecipitationSumIn
2012-12-1,72.0,62.8,59.7,66.5,61.5,59.4,99,96,74,30.01,29.91,4,1,7,0.18
2012-12-2,70.2,63.4,59.7,65.4,62.2,59.4,99,96,80,29.98,29.89,4,2,11,0.39
2012-12-3,73.9,61.8,52.3,66.6,59.4,51.6,99,92,71,30.03,29.92,4,1,10,0.02
2012-12-4,71.2,57.9,49.6,65.8,56.0,49.2,99,94,67,30.10,29.99,2,0,7,0.02
2012-12-5,74.7,58.4,48.9,64.3,54.2,48.7,99,88,54,30.00,29.92,3,1,7,0.00
2012-12-6,72.3,59.5,51.3,61.9,56.7,51.0,99,91,69,29.92,29.79,4,1,5,0.01
2012-12-7,71.6,57.4,45.3,61.0,53.8,44.5,99,89,67,29.89,29.82,4,1,6,0.01
2012-12-8,69.1,52.2,39.9,58.7,50.2,39.7,99,94,66,29.90,29.82,3,0,5,0.01
2012-12-9,71.8,55.1,45.9,58.7,51.4,45.1,99,89,56,30.03,29.88,4,1,9,0.00
2012-12-10,83.3,58.5,42.4,59.8,46.6,32.5,99,74,17,30.05,29.95,3,1,8,0.01
2012-12-11,76.5,57.6,41.0,59.5,46.9,39.7,99,73,31,29.96,29.84,4,1,10,0.00
2012-12-13,68.0,54.7,43.5,60.8,48.3,41.5,99,82,49,29.93,29.81,5,1,10,0.20
2012-12-14,44.2,42.2,40.3,42.3,40.8,39.2,97,95,92,29.87,29.85,3,0,5,0.00
2012-12-15,65.1,54.2,40.6,48.2,43.8,37.0,99,70,36,30.17,30.06,3,1,8,0.01
2012-12-16,55.9,53.0,49.6,55.1,51.2,46.0,99,94,78,30.23,29.59,4,2,11,0.02
2012-12-17,68.9,57.4,53.2,58.4,54.3,52.1,99,90,63,29.94,29.75,3,1,8,0.01
2012-12-18,68.7,58.1,49.5,60.8,45.8,22.3,99,70,21,29.75,29.57,8,2,19,0.17
2012-12-19,63.5,50.3,35.4,33.4,21.4,12.0,79,38,17,30.04,29.83,8,3,16,0.00
2012-12-20,69.4,55.4,47.5,20.8,16.1,12.6,34,22,14,30.01,29.85,9,4,14,0.00
2012-12-21,71.4,54.4,44.1,45.8,31.1,20.4,91,47,15,29.88,29.80,4,1,7,0.00
2012-12-22,63.9,53.3,37.4,54.4,47.4,33.9,98,84,34,29.94,29.83,3,1,7,0.07
2012-12-23,68.0,55.3,47.3,60.1,53.1,47.0,99,93,65,29.99,29.86,4,1,11,0.12
2012-12-24,70.9,57.0,49.8,62.1,54.2,45.2,99,91,64,29.86,29.75,4,1,8,0.41
2012-12-25,65.3,52.0,43.3,47.0,42.8,37.5,95,73,38,29.87,29.74,2,0,5,0.00
2012-12-26,65.7,54.8,46.2,57.5,47.7,40.3,99,79,50,29.75,29.67,7,2,19,0.11
2012-12-27,67.3,47.7,37.0,45.9,38.0,34.4,99,71,39,29.88,29.73,6,1,9,0.00
2012-12-28,71.2,51.1,37.6,48.4,37.9,27.4,91,65,22,29.93,29.83,5,1,10,0.00
2012-12-29,60.4,47.6,39.9,49.4,42.0,35.5,98,82,59,29.83,29.73,4,1,11,0.10
2012-12-30,66.0,48.6,35.4,46.2,38.5,33.2,99,72,35,29.85,29.68,4,1,8,0.00
2012-12-31,70.3,48.9,35.4,39.1,35.4,28.8,89,64,22,30.01,29.85,6,2,17,0.00